Weather in Krasnoobsk

Russia / Novosibirsk Oblast     54°55′16″N   82°59′28″E
temp.,
°C
wind,
m/s
gust,
m/s
humid.,
%
clouds,
%
prec.,
mm/h
press.,
hPa
HPBL,
m
25 february, thu
thu2501:00−16wsw91875100 3.8 1012675
04:00−22sw44900 0.0 101466
07:00−23sw4119319 0.0 1016248
10:00−23ssw512930 0.0 1018384
13:00−20ssw8128417 0.0 10181030
16:00−19sw91387100 0.1 10191568
19:00−19sw61296100 0.2 10201134
22:00−21sw41093100 0.0 1021385
26 february, fri
fri2601:00−21sw61195100 0.1 1021695
04:00−22sw61195100 0.1 1023680
07:00−22sw61194100 0.2 1025812
10:00−24sw71293100 0.1 1027732
13:00−23wsw81289100 0.3 1030990
16:00−23wsw71188100 0.1 1032821
19:00−27sw41094100 0.1 1034234
22:00−30sw4109593 0.0 1036215
27 february, sat
sat2701:00−30sw389797 0.0 1036211
04:00−30ssw3797100 0.0 1037186
07:00−27sw4898100 0.1 1037329
10:00−26sw5895100 0.1 1038466
13:00−24sw5793100 0.1 1038500
16:00−22sw4792100 0.0 1038552
19:00−25sw239899 0.1 103721
22:00−28ssw339872 0.0 103825
28 february, sun
sun2801:00−29s339642 0.0 103834
04:00−30s339636 0.0 103826
07:00−29sse349853 0.0 103870
10:00−25sse599354 0.0 1036233
13:00−19sse599167 0.0 1033360
16:00−14sse61088100 0.0 1031523
19:00−11sse51287100 0.0 1027572
22:00−10s71394100 0.7 1024766
1 march, mon
mon101:00−9s71394100 2.5 1020845
04:00−8s71394100 1.8 1016714
07:00−7s71395100 4.0 1014729
10:00−5ssw81495100 1.9 1012838
13:00−2sw91596100 4.0 1011911
16:000sw101594100 0.8 10101023
19:000sw71394100 1.6 1011876
22:00−1wsw61297100 0.6 1012747